Overview Statistics Trail Chart Weather Telemetry Raw packets
 

This is the latest recevied weather packets stored in our database for station/object OK2ILA-10. If no packets are shown the sender has not sent any weather packets the latest 10 day(s).

<< 83 84 85 86 87 88 89 >>
Time Temp. Humidity Pressure Rain* Wind** Luminosity Snow
1787958725 20° C 60% 1013.4 hPa - - - -
1787958719 20° C 60% 1013.4 hPa - - - -
1787958123 20° C 63% 1013.5 hPa - - - -
1787958118 20° C 63% 1013.5 hPa - - - -
1787957526 19.44° C 64% 1013.3 hPa - - - -
1787957518 19.44° C 64% 1013.3 hPa - - - -
1787956923 19.44° C 64% 1013.4 hPa - - - -
1787956918 19.44° C 64% 1013.4 hPa - - - -
1787956318 19.44° C 66% 1013.6 hPa - - - -
1787955718 18.89° C 67% 1013.8 hPa - - - -
1787955117 18.89° C 66% 1013.7 hPa - - - -
1787954517 19.44° C 65% 1013.7 hPa - - - -
1787953917 19.44° C 65% 1013.8 hPa - - - -
1787953323 19.44° C 65% 1013.9 hPa - - - -
1787953317 19.44° C 65% 1013.9 hPa - - - -
1787952717 19.44° C 65% 1014.2 hPa - - - -
1787952116 20° C 63% 1014.2 hPa - - - -
1787951516 20° C 61% 1014.8 hPa - - - -
1787950916 20° C 61% 1014.9 hPa - - - -
1787950315 20° C 62% 1015.1 hPa - - - -
1787949715 20° C 63% 1015.2 hPa - - - -
1787949114 20° C 63% 1015.3 hPa - - - -
1787948514 20° C 63% 1015.5 hPa - - - -
1787947925 20° C 63% 1015.4 hPa - - - -
1787947914 20° C 63% 1015.4 hPa - - - -

* Rain since midnight (hover to see other rain measurements)
** Current wind speed in m/s (hover to see current wind gust speed)